This is the latest recevied weather packets stored in our database for station/object KW4UJ. If no packets are shown the sender has not sent any weather packets the latest 10 day(s).
| Time | Temp. | Humidity | Pressure | Rain* | Wind** | Luminosity | Snow |
|---|---|---|---|---|---|---|---|
| 1788634797 | 27.22° C | 70% | 1010.9 hPa | 0 mm | - | 426 W/m² | - |
| 1788634492 | 26.67° C | 71% | 1010.7 hPa | 0 mm | - | 348 W/m² | - |
| 1788634191 | 26.67° C | 73% | 1011.2 hPa | 0 mm | - | 317 W/m² | - |
| 1788633886 | 26.67° C | 72% | 1011.1 hPa | 0 mm | - | 208 W/m² | - |
| 1788633585 | 26.67° C | 73% | 1011.2 hPa | 0 mm | - | 236 W/m² | - |
| 1788633279 | 26.67° C | 72% | 1011 hPa | 0 mm | - | 258 W/m² | - |
| 1788632974 | 26.67° C | 71% | 1011.1 hPa | 0 mm | - | 272 W/m² | - |
| 1788632673 | 26.67° C | 72% | 1011.1 hPa | 0 mm | - | 290 W/m² | - |
| 1788632369 | 26.67° C | 71% | 1011.2 hPa | 0 mm | - | 289 W/m² | - |
| 1788632069 | 26.67° C | 71% | 1011.3 hPa | 0 mm | - | 280 W/m² | - |
| 1788631768 | 26.67° C | 72% | 1011.2 hPa | 0 mm | - | 281 W/m² | - |
| 1788631463 | 26.67° C | 73% | 1011.3 hPa | 0 mm | - | 270 W/m² | - |
| 1788631158 | 26.67° C | 75% | 1011.5 hPa | 0 mm | - | 352 W/m² | - |
| 1788630858 | 26.67° C | 75% | 1011.6 hPa | 0 mm | - | 253 W/m² | - |
| 1788630553 | 26.11° C | 74% | 1011.4 hPa | 0 mm | - | 211 W/m² | - |
| 1788630249 | 26.67° C | 74% | 1011.7 hPa | 0 mm | - | 211 W/m² | - |
| 1788629944 | 26.11° C | 76% | 1011.7 hPa | 0 mm | - | 248 W/m² | - |
| 1788629641 | 26.11° C | 75% | 1011.8 hPa | 0 mm | - | 219 W/m² | - |
| 1788629335 | 26.67° C | 74% | 1011.8 hPa | 0 mm | - | 171 W/m² | - |
| 1788629033 | 26.11° C | 75% | 1012 hPa | 0 mm | - | 228 W/m² | - |
| 1788628729 | 26.11° C | 76% | 1012.2 hPa | 0 mm | - | 270 W/m² | - |
| 1788628426 | 26.11° C | 77% | 1012.2 hPa | 0 mm | - | 159 W/m² | - |
| 1788628122 | 26.11° C | 77% | 1012.3 hPa | 0 mm | - | 137 W/m² | - |
| 1788627818 | 25.56° C | 77% | 1012.1 hPa | 0 mm | - | 197 W/m² | - |
| 1788627517 | 26.11° C | 76% | 1012.3 hPa | 0 mm | - | 126 W/m² | - |
* Rain latest hour (hover to see other rain measurements)
** Current wind speed in m/s (hover to see current wind gust speed)